When you browse on this site, cookies collect data to enhance your experience and personalize the content and advertising you see.
Visit our Privacy Policy to learn more. By continuing to use the site, you agree to this use of cookies and data.
  • In Lithuania
  • List of Countries
  • For 7 days
  • Water Temperature
  • Weather Map
  • Weather Widgets
  • user-avatar
    Login

    Hourly Weather San Juan

    Today, 31 March, Tuesday

    Time Temperature Precipitation Wind Pressure Humidity
    00:00 +22°C° 0 mm 6 mps 708 mmHg 71%
    01:00 +21°C° 0 mm 5 mps 708 mmHg 73%
    02:00 +21°C° 0 mm 5 mps 707 mmHg 74%
    03:00 +20°C° 0 mm 4 mps 707 mmHg 75%
    04:00 +20°C° 0 mm 4 mps 707 mmHg 76%
    05:00 +20°C° 0 mm 3 mps 707 mmHg 76%
    06:00 +20°C° 0 mm 3 mps 707 mmHg 76%
    07:00 +20°C° 0 mm 2 mps 707 mmHg 76%
    08:00 +21°C° 0 mm 2 mps 707 mmHg 72%
    09:00 +23°C° 0 mm 2 mps 707 mmHg 68%
    10:00 +24°C° 0 mm 2 mps 707 mmHg 64%
    11:00 +25°C° 0 mm 2 mps 706 mmHg 61%
    12:00 +26°C° 0 mm 2 mps 706 mmHg 58%
    13:00 +27°C° 0 mm 2 mps 705 mmHg 54%
    14:00 +28°C° 0 mm 2 mps 704 mmHg 54%
    15:00 +28°C° 0 mm 2 mps 704 mmHg 53%
    16:00 +28°C° 0 mm 2 mps 704 mmHg 52%
    17:00 +28°C° 0 mm 2 mps 704 mmHg 55%
    18:00 +27°C° 0 mm 3 mps 705 mmHg 57%
    19:00 +27°C° 0 mm 3 mps 705 mmHg 60%
    20:00 +26°C° 0 mm 3 mps 705 mmHg 63%
    21:00 +26°C° 0 mm 3 mps 705 mmHg 65%
    22:00 +25°C° 0 mm 2 mps 705 mmHg 68%
    23:00 +25°C° 0 mm 2 mps 705 mmHg 70%

    Tomorrow, 1 April, Wednesday

    Time Temperature Precipitation Wind Pressure Humidity
    00:00 +25°C° 0 mm 2 mps 705 mmHg 72%
    01:00 +24°C° 0 mm 2 mps 704 mmHg 74%
    02:00 +24°C° 0 mm 2 mps 704 mmHg 76%
    03:00 +24°C° 0 mm 2 mps 704 mmHg 77%
    04:00 +23°C° 0 mm 2 mps 704 mmHg 78%
    05:00 +24°C° 0 mm 2 mps 704 mmHg 77%
    06:00 +24°C° 0 mm 3 mps 705 mmHg 77%
    07:00 +24°C° 0 mm 3 mps 705 mmHg 76%
    08:00 +25°C° 0.1 mm 4 mps 706 mmHg 73%
    09:00 +25°C° 0.1 mm 5 mps 706 mmHg 71%
    10:00 +26°C° 0.1 mm 6 mps 706 mmHg 68%
    11:00 +26°C° 0.1 mm 7 mps 706 mmHg 67%
    12:00 +26°C° 0.1 mm 7 mps 706 mmHg 66%
    13:00 +27°C° 0.1 mm 8 mps 706 mmHg 64%
    14:00 +26°C° 0.2 mm 8 mps 706 mmHg 67%
    15:00 +24°C° 0.2 mm 8 mps 706 mmHg 69%
    16:00 +23°C° 0.2 mm 8 mps 706 mmHg 71%
    17:00 +23°C° 0.2 mm 7 mps 707 mmHg 74%
    18:00 +22°C° 0.2 mm 7 mps 708 mmHg 76%
    19:00 +22°C° 0.2 mm 6 mps 709 mmHg 78%
    20:00 +21°C° 0.1 mm 7 mps 710 mmHg 78%
    21:00 +21°C° 0.1 mm 7 mps 710 mmHg 78%
    22:00 +21°C° 0.1 mm 7 mps 711 mmHg 78%
    23:00 +21°C° 0 mm 7 mps 711 mmHg 77%

    Day after tomorrow, 2 April, Thursday

    Time Temperature Precipitation Wind Pressure Humidity
    00:00 +20°C° 0 mm 6 mps 712 mmHg 76%
    01:00 +20°C° 0 mm 6 mps 712 mmHg 75%
    02:00 +20°C° 0 mm 6 mps 712 mmHg 73%
    03:00 +20°C° 0 mm 5 mps 712 mmHg 70%
    04:00 +20°C° 0 mm 5 mps 712 mmHg 67%
    05:00 +20°C° 0 mm 5 mps 712 mmHg 64%
    06:00 +20°C° 0 mm 4 mps 713 mmHg 60%
    07:00 +20°C° 0 mm 4 mps 713 mmHg 57%
    08:00 +21°C° 0 mm 4 mps 713 mmHg 51%
    09:00 +22°C° 0 mm 4 mps 713 mmHg 46%
    10:00 +24°C° 0 mm 3 mps 713 mmHg 41%
    11:00 +25°C° 0 mm 3 mps 712 mmHg 40%
    12:00 +25°C° 0 mm 3 mps 711 mmHg 38%
    13:00 +26°C° 0 mm 2 mps 711 mmHg 37%
    14:00 +26°C° 0 mm 2 mps 710 mmHg 37%
    15:00 +26°C° 0 mm 2 mps 710 mmHg 37%
    16:00 +27°C° 0 mm 2 mps 709 mmHg 38%
    17:00 +26°C° 0 mm 2 mps 709 mmHg 39%
    18:00 +25°C° 0 mm 2 mps 710 mmHg 40%
    19:00 +24°C° 0 mm 2 mps 710 mmHg 41%
    20:00 +24°C° 0 mm 2 mps 710 mmHg 42%
    21:00 +23°C° 0 mm 1 mps 710 mmHg 44%
    22:00 +23°C° 0 mm 1 mps 709 mmHg 45%
    23:00 +22°C° 0 mm 1 mps 709 mmHg 46%

    3 April, Friday

    Time Temperature Precipitation Wind Pressure Humidity
    00:00 +22°C° 0 mm 1 mps 709 mmHg 47%
    01:00 +22°C° 0 mm 1 mps 708 mmHg 48%
    02:00 +21°C° 0 mm 1 mps 708 mmHg 49%
    03:00 +21°C° 0 mm 1 mps 707 mmHg 50%
    04:00 +18°C° 0 mm 0 mps 707 mmHg 51%
    05:00 +21°C° 0 mm 1 mps 707 mmHg 48%
    06:00 +22°C° 0 mm 1 mps 707 mmHg 46%
    07:00 +22°C° 0 mm 1 mps 707 mmHg 43%
    08:00 +24°C° 0 mm 1 mps 707 mmHg 40%
    09:00 +25°C° 0 mm 2 mps 706 mmHg 37%
    10:00 +26°C° 0 mm 3 mps 706 mmHg 34%
    11:00 +28°C° 0 mm 3 mps 705 mmHg 32%
    12:00 +29°C° 0 mm 3 mps 705 mmHg 31%
    13:00 +30°C° 0 mm 3 mps 704 mmHg 29%
    14:00 +30°C° 0 mm 3 mps 703 mmHg 29%
    15:00 +31°C° 0 mm 3 mps 703 mmHg 29%
    16:00 +31°C° 0 mm 3 mps 702 mmHg 28%
    17:00 +29°C° 0 mm 2 mps 702 mmHg 32%
    18:00 +28°C° 0 mm 2 mps 702 mmHg 36%
    19:00 +27°C° 0 mm 2 mps 702 mmHg 40%
    20:00 +26°C° 0 mm 2 mps 702 mmHg 43%
    21:00 +25°C° 0 mm 2 mps 702 mmHg 46%
    22:00 +25°C° 0 mm 2 mps 702 mmHg 48%
    23:00 +24°C° 0 mm 1 mps 702 mmHg 50%

    4 April, Saturday

    Time Temperature Precipitation Wind Pressure Humidity
    00:00 +24°C° 0 mm 1 mps 702 mmHg 52%
    01:00 +23°C° 0 mm 1 mps 701 mmHg 53%
    02:00 +23°C° 0 mm 1 mps 701 mmHg 54%
    03:00 +22°C° 0 mm 1 mps 701 mmHg 54%
    04:00 +22°C° 0 mm 1 mps 701 mmHg 55%
    05:00 +21°C° 0 mm 2 mps 701 mmHg 54%
    06:00 +22°C° 0 mm 3 mps 702 mmHg 52%
    07:00 +22°C° 0 mm 4 mps 702 mmHg 51%
    08:00 +23°C° 0 mm 5 mps 702 mmHg 48%
    09:00 +24°C° 0 mm 7 mps 703 mmHg 44%
    10:00 +27°C° 0 mm 8 mps 703 mmHg 41%
    11:00 +27°C° 0 mm 8 mps 703 mmHg 37%
    12:00 +28°C° 0 mm 8 mps 702 mmHg 34%
    13:00 +29°C° 0 mm 7 mps 702 mmHg 31%
    14:00 +29°C° 0 mm 7 mps 702 mmHg 32%
    15:00 +28°C° 0 mm 6 mps 701 mmHg 34%
    16:00 +28°C° 0 mm 5 mps 701 mmHg 36%
    17:00 +27°C° 0 mm 4 mps 701 mmHg 39%
    18:00 +26°C° 0 mm 3 mps 701 mmHg 43%
    19:00 +25°C° 0 mm 2 mps 702 mmHg 46%
    20:00 +24°C° 0 mm 2 mps 702 mmHg 47%
    21:00 +24°C° 0 mm 2 mps 702 mmHg 49%
    22:00 +24°C° 0 mm 2 mps 702 mmHg 50%
    23:00 +23°C° 0 mm 2 mps 702 mmHg 52%

    5 April, Sunday

    Time Temperature Precipitation Wind Pressure Humidity
    00:00 +23°C° 0 mm 2 mps 702 mmHg 53%
    01:00 +21°C° 0 mm 2 mps 701 mmHg 55%
    02:00 +21°C° 0 mm 2 mps 701 mmHg 55%
    03:00 +21°C° 0 mm 2 mps 701 mmHg 56%
    04:00 +20°C° 0 mm 2 mps 701 mmHg 57%
    05:00 +21°C° 0 mm 3 mps 701 mmHg 56%
    06:00 +21°C° 0 mm 3 mps 702 mmHg 55%
    07:00 +21°C° 0 mm 3 mps 702 mmHg 55%
    08:00 +22°C° 0 mm 3 mps 702 mmHg 51%
    09:00 +25°C° 0 mm 3 mps 702 mmHg 47%
    10:00 +26°C° 0 mm 3 mps 702 mmHg 43%
    11:00 +27°C° 0 mm 3 mps 702 mmHg 40%
    12:00 +28°C° 0 mm 4 mps 702 mmHg 38%
    13:00 +29°C° 0 mm 4 mps 702 mmHg 35%
    14:00 +29°C° 0 mm 4 mps 702 mmHg 35%
    15:00 +29°C° 0 mm 5 mps 702 mmHg 35%
    16:00 +29°C° 0 mm 6 mps 702 mmHg 34%
    17:00 +28°C° 0 mm 5 mps 703 mmHg 36%
    18:00 +28°C° 0 mm 5 mps 704 mmHg 39%
    19:00 +27°C° 0 mm 5 mps 705 mmHg 41%
    20:00 +26°C° 0 mm 5 mps 706 mmHg 42%
    21:00 +26°C° 0 mm 5 mps 707 mmHg 43%
    22:00 +25°C° 0 mm 5 mps 707 mmHg 44%
    23:00 +25°C° 0 mm 5 mps 708 mmHg 46%
    Show more